Wind_Speed
78 77 77 78 79 78 79 80 83 85 87 89 90 92 92 95 97 97 95 92 87 78 57 55 54 52 51 48 44 37 39 42 42 39 40 35 32 31 49 51 55 55 57
78 79 81 80 80 80 82 83 83 86 89 91 93 95 97 99 97 97 93 85 78 65 53 51 52 51 48 46 40 36 39 41 42 39 40 38 28 39 55 53 56 56 59
80 81 82 83 84 85 86 88 89 93 96 97 97 99 99 100 98 91 76 70 70 57 52 48 49 49 47 46 39 35 38 41 41 38 32 31 25 51 52 62 60 56 54
83 84 85 87 88 89 91 92 93 96 96 96 96 98 95 85 76 70 67 63 58 55 50 46 43 45 40 43 38 35 37 41 44 42 42 35 28 49 55 64 61 64 66
85 85 86 89 90 93 93 91 91 91 94 94 86 81 75 69 65 61 56 50 49 50 47 43 27 46 40 39 37 36 39 43 45 42 39 35 24 53 60 67 66 68 69
86 86 87 89 89 90 88 83 85 89 83 70 62 62 62 59 55 51 44 41 43 47 49 52 50 54 37 32 33 34 41 45 45 42 38 33 28 48 61 71 68 68 73
88 87 87 88 90 88 89 84 78 68 62 60 56 51 48 45 44 41 39 42 45 49 54 53 55 47 43 44 41 45 44 50 43 40 39 36 37 31 68 73 73 71 72
89 89 87 90 88 87 83 74 60 52 49 47 44 37 33 33 37 37 36 40 46 51 56 55 51 45 44 46 49 43 41 42 42 42 42 46 46 40 61 73 75 72 70
91 89 89 88 85 83 69 56 49 44 40 37 31 27 26 27 28 28 32 39 46 55 58 55 46 31 37 39 49 46 52 47 48 52 54 55 52 46 48 76 74 71 64
90 87 86 85 81 62 54 45 39 37 31 27 27 23 25 23 23 24 28 38 44 61 62 56 49 34 34 33 37 51 54 53 54 54 58 58 53 49 49 64 71 68 69
87 87 83 80 66 47 43 36 33 30 24 27 27 23 22 21 18 26 28 33 44 56 51 47 40 30 32 37 41 45 49 51 57 56 57 55 50 46 48 63 64 60 67
86 84 77 67 47 40 35 31 30 27 30 33 34 32 26 25 33 36 36 34 39 46 46 45 42 40 30 34 41 47 51 54 59 63 57 50 43 45 51 64 62 59 62
81 78 66 58 44 35 32 31 29 32 34 37 36 36 35 38 39 33 33 36 39 42 44 42 46 35 26 36 46 48 52 58 52 49 46 43 43 50 52 58 62 63 65
76 73 62 51 40 34 32 34 33 36 37 38 42 44 46 44 44 44 43 45 45 45 42 42 45 37 31 36 43 47 40 35 33 36 37 39 42 45 55 57 60 64 66
68 65 57 43 37 35 37 40 39 43 47 47 48 51 47 49 43 43 47 46 44 47 47 46 43 37 32 39 31 26 24 24 28 28 28 31 35 40 43 48 52 57 65
70 63 49 39 36 39 44 45 46 47 52 54 55 58 54 52 54 51 50 45 48 50 51 52 45 35 41 31 26 26 25 25 24 24 26 31 36 36 38 38 45 50 54
58 50 41 39 37 46 49 48 51 53 57 57 55 56 54 53 54 52 51 47 50 51 46 48 46 45 40 31 26 30 28 28 31 29 26 31 34 34 35 39 35 36 43
41 37 35 36 41 51 53 52 54 60 59 60 55 60 60 57 59 55 51 51 49 48 48 47 47 48 45 38 35 28 26 32 32 32 34 31 32 37 38 34 28 28 27
34 28 33 37 46 56 56 54 56 65 64 60 58 60 62 59 58 53 52 54 50 49 48 47 43 44 45 43 44 44 41 38 37 34 36 39 35 37 40 40 36 39 39
28 29 34 41 50 58 58 57 59 68 66 62 60 59 60 58 56 56 57 57 50 47 47 58 56 55 52 46 49 50 51 48 51 47 42 43 42 41 40 44 46 41 43
28 31 35 43 55 60 60 60 61 70 70 65 62 63 60 60 60 60 58 59 56 57 52 54 56 55 55 55 51 55 51 58 60 54 45 46 46 43 44 44 49 51 53
30 32 36 45 57 62 63 63 64 69 72 68 64 63 60 57 62 62 60 60 61 64 63 60 59 65 66 63 60 59 62 62 65 62 55 48 50 48 44 46 51 52 54
31 35 40 45 58 64 67 66 66 68 73 73 68 64 64 64 68 64 64 65 64 67 70 69 70 71 72 73 69 71 71 72 76 71 65 56 54 49 50 54 51 51 52
35 37 42 47 56 67 71 71 70 72 72 77 74 71 71 69 71 71 69 68 69 70 74 72 74 75 76 75 76 80 84 81 80 77 72 64 64 65 71 62 64 65 64
32 36 42 47 54 69 73 78 76 74 75 76 79 77 75 76 77 78 78 75 75 76 81 81 84 84 80 78 78 82 86 87 85 83 81 79 80 77 76 78 76 76 74
33 37 42 47 54 62 73 80 83 80 79 80 81 85 84 81 84 85 85 85 84 82 84 87 87 90 90 91 88 88 89 90 89 88 88 85 87 86 88 85 80 83 83
Wind_Direction
279 278 277 278 279 279 278 277 278 279 280 281 282 283 282 280 282 282 280 280 279 275 266 259 252 247 241 232 226 229 237 245 246 249 248 256 269 227 196 199 206 205 204
279 280 280 279 280 281 280 280 281 282 282 282 282 282 281 280 279 279 278 277 272 265 257 245 242 233 232 222 218 224 236 239 246 248 253 259 260 211 201 203 206 207 215
275 276 277 279 280 280 279 278 280 281 281 282 282 282 280 278 278 279 274 267 261 256 248 240 233 224 220 218 216 226 236 236 244 246 248 257 260 198 206 209 209 209 215
272 273 275 277 278 278 277 278 279 279 281 281 280 278 277 277 274 269 265 261 257 253 238 229 223 217 215 213 215 227 227 234 242 246 254 254 254 204 207 209 211 208 213
271 273 274 275 278 278 281 281 282 282 282 280 278 275 273 270 268 267 262 254 245 239 223 212 171 250 213 207 215 220 229 236 243 247 247 249 250 209 210 209 211 216 217
272 272 274 276 279 281 284 284 284 286 281 278 272 268 266 267 266 263 252 243 232 218 211 192 196 199 198 204 218 232 240 244 250 247 247 252 256 218 208 213 212 219 224
272 275 276 278 282 284 287 290 286 279 275 269 267 266 263 261 255 248 235 223 213 207 197 191 191 196 206 212 220 227 236 244 245 247 249 252 258 236 213 213 213 220 224
272 275 279 280 284 287 291 287 280 273 267 266 265 256 248 237 231 222 215 210 204 196 191 192 195 204 219 220 224 229 236 239 243 250 252 258 261 261 222 213 217 218 226
274 276 279 282 285 289 285 277 272 267 264 256 246 234 226 223 222 215 209 202 198 191 190 196 193 205 224 234 228 236 238 250 255 256 259 260 261 264 235 215 218 219 220
274 277 280 282 285 286 273 266 262 255 245 231 220 208 209 208 207 195 196 197 197 194 191 196 185 197 218 226 235 244 246 253 252 253 259 259 261 259 231 214 220 226 221
275 278 279 283 282 273 264 256 246 235 219 205 187 188 197 192 197 181 172 184 193 192 194 194 197 207 214 216 239 249 246 252 258 258 260 262 256 241 221 214 218 225 229
275 277 280 279 277 267 255 244 225 212 197 190 182 178 176 178 174 164 163 168 177 187 190 194 195 199 220 239 253 254 247 255 258 259 258 253 233 219 223 218 224 227 226
275 277 277 275 271 261 247 228 207 195 189 185 184 180 171 170 169 173 174 181 191 192 193 199 205 208 229 247 249 251 257 257 253 247 241 225 220 219 221 224 227 229 229
272 274 272 271 267 255 229 209 196 190 188 186 183 175 171 176 180 182 192 191 198 198 202 208 215 214 226 244 252 265 253 235 228 226 221 224 226 228 228 231 232 234 234
270 270 268 270 260 240 212 197 192 191 186 183 183 176 177 180 190 198 195 196 203 204 208 212 211 221 227 242 243 231 218 212 220 222 225 228 231 233 235 234 237 239 238
263 264 268 264 245 221 201 194 191 189 188 185 182 184 190 188 196 197 199 201 205 210 210 218 216 222 234 236 221 226 224 233 236 241 244 244 246 242 242 243 247 247 240
258 262 258 243 223 207 198 192 192 191 190 187 192 194 201 204 198 199 199 201 210 209 208 215 226 227 238 235 234 231 232 240 244 246 251 252 249 249 238 236 243 248 244
256 248 237 223 209 201 197 194 197 192 192 194 198 203 203 200 201 202 204 211 216 216 217 226 235 239 242 248 244 229 242 240 242 249 251 249 248 246 231 231 241 252 228
249 238 225 212 203 197 197 197 197 198 194 199 203 207 205 207 207 204 209 213 216 222 223 226 232 245 247 251 248 247 254 266 259 246 248 251 246 246 249 233 239 250 250
237 224 216 207 201 198 198 200 200 199 198 201 206 208 210 212 213 213 212 218 218 217 223 231 234 242 241 240 249 256 263 268 265 258 256 246 246 243 242 247 233 233 247
224 216 212 206 202 199 201 201 203 202 203 204 209 210 211 214 216 218 219 222 220 221 220 227 231 236 239 243 245 244 254 261 260 259 258 244 245 246 245 242 246 241 235
218 211 210 207 203 201 203 204 205 207 206 209 210 215 212 216 217 220 223 222 221 222 226 230 238 239 241 245 243 249 249 249 255 255 255 247 241 240 243 244 248 252 251
214 209 207 207 205 204 206 207 208 209 210 211 212 216 220 217 217 217 219 224 225 229 228 229 234 239 239 242 239 242 243 245 249 255 256 245 242 236 242 253 255 246 252
214 210 209 208 208 208 208 210 211 212 213 214 216 217 220 224 221 222 223 226 230 234 234 232 236 240 244 243 240 240 243 246 248 250 253 250 245 249 258 259 262 263 265
223 216 214 214 212 211 211 213 213 215 216 219 218 218 220 223 227 227 225 228 232 233 231 237 237 238 237 241 241 240 244 247 250 253 254 253 257 258 259 264 266 266 269
234 226 220 218 218 216 216 216 217 217 219 220 223 222 221 222 224 228 230 230 231 229 232 235 238 239 241 241 243 246 246 251 253 254 256 258 261 262 263 267 265 267 269
Height
10597 10597 10597 10595 10594 10594 10593 10592 10588 10583 10581 10580 10578 10574 10575 10573 10566 10564 10564 10569 10568 10572 10574 10582 10588 10594 10600 10608 10612 10617 10625 10632 10636 10640 10643 10646 10647 10648 10653 10660 10667 10675 10680
10578 10577 10575 10573 10574 10574 10573 10570 10569 10563 10558 10558 10556 10554 10549 10545 10543 10541 10545 10543 10544 10548 10555 10562 10569 10577 10585 10594 10598 10606 10614 10621 10626 10630 10634 10636 10638 10640 10645 10654 10658 10665 10670
10561 10558 10556 10554 10552 10551 10552 10551 10546 10540 10536 10532 10532 10526 10521 10519 10520 10515 10518 10522 10521 10529 10537 10547 10555 10564 10575 10584 10587 10596 10604 10611 10616 10619 10623 10625 10627 10633 10640 10645 10649 10657 10662
10540 10540 10538 10534 10533 10533 10531 10530 10526 10519 10514 10509 10506 10499 10494 10493 10495 10493 10494 10499 10507 10514 10525 10536 10550 10562 10566 10573 10577 10587 10595 10601 10605 10609 10612 10616 10619 10626 10631 10636 10641 10643 10648
10520 10520 10518 10513 10512 10508 10506 10504 10502 10494 10488 10482 10476 10472 10471 10470 10472 10474 10476 10482 10489 10499 10513 10531 10542 10572 10561 10562 10567 10576 10586 10592 10595 10598 10602 10605 10609 10615 10621 10624 10628 10634 10637
10498 10498 10496 10492 10491 10486 10483 10482 10477 10469 10459 10457 10456 10456 10455 10454 10454 10455 10462 10467 10476 10488 10502 10516 10528 10547 10551 10552 10562 10569 10577 10582 10586 10589 10591 10594 10598 10602 10609 10614 10619 10624 10628
10475 10476 10476 10471 10470 10465 10458 10458 10452 10445 10442 10439 10440 10440 10440 10440 10440 10444 10450 10457 10469 10478 10492 10505 10518 10530 10534 10542 10552 10557 10564 10570 10574 10578 10581 10583 10586 10592 10598 10602 10606 10612 10616
10452 10455 10456 10450 10448 10443 10440 10433 10430 10428 10426 10425 10426 10429 10429 10429 10431 10435 10442 10450 10462 10473 10485 10498 10509 10519 10527 10533 10541 10549 10555 10559 10563 10566 10569 10571 10572 10577 10581 10588 10595 10599 10605
10434 10436 10436 10431 10430 10426 10422 10417 10416 10415 10415 10418 10419 10420 10421 10423 10427 10431 10439 10447 10459 10470 10482 10493 10504 10515 10523 10527 10534 10538 10544 10548 10550 10553 10556 10557 10559 10561 10563 10573 10582 10587 10595
10415 10418 10416 10411 10411 10412 10404 10405 10405 10405 10408 10409 10410 10413 10417 10420 10424 10430 10436 10445 10456 10466 10475 10486 10496 10505 10516 10523 10528 10529 10532 10534 10537 10539 10542 10543 10544 10546 10551 10560 10569 10575 10581
10396 10396 10395 10394 10394 10393 10390 10392 10394 10398 10400 10403 10405 10410 10414 10419 10423 10429 10435 10443 10452 10461 10475 10485 10493 10500 10508 10514 10516 10514 10517 10521 10525 10527 10530 10530 10531 10533 10540 10549 10556 10563 10568
10374 10374 10376 10374 10378 10378 10378 10381 10385 10390 10394 10398 10401 10404 10412 10417 10423 10428 10435 10443 10452 10458 10465 10474 10483 10491 10496 10501 10502 10502 10507 10511 10513 10514 10515 10516 10519 10524 10531 10539 10544 10551 10559
10352 10352 10356 10356 10362 10364 10366 10372 10377 10383 10389 10394 10398 10402 10407 10415 10422 10431 10440 10445 10449 10454 10461 10468 10475 10480 10485 10489 10489 10495 10496 10495 10495 10498 10501 10505 10510 10516 10523 10529 10535 10541 10546
10334 10334 10337 10341 10347 10351 10354 10363 10368 10376 10384 10390 10395 10398 10404 10411 10418 10425 10428 10434 10441 10449 10457 10464 10470 10473 10477 10480 10482 10483 10480 10481 10485 10489 10494 10499 10505 10510 10516 10521 10526 10529 10532
10316 10317 10320 10327 10333 10339 10344 10352 10358 10367 10375 10381 10389 10396 10401 10405 10412 10418 10424 10431 10438 10445 10451 10457 10462 10466 10468 10475 10476 10477 10476 10479 10484 10487 10490 10494 10498 10502 10506 10510 10512 10515 10518
10298 10301 10308 10315 10320 10328 10334 10343 10350 10360 10367 10374 10379 10384 10392 10396 10401 10407 10416 10424 10429 10438 10444 10450 10454 10457 10465 10467 10468 10471 10473 10476 10479 10481 10485 10488 10491 10493 10495 10497 10500 10502 10506
10285 10290 10297 10300 10308 10316 10324 10333 10342 10351 10359 10368 10374 10379 10383 10388 10396 10403 10409 10417 10422 10430 10438 10443 10448 10455 10457 10460 10462 10464 10466 10469 10472 10473 10476 10480 10482 10483 10486 10489 10490 10491 10494
10272 10278 10283 10288 10296 10305 10315 10324 10334 10341 10351 10359 10366 10371 10374 10382 10387 10396 10405 10411 10418 10425 10430 10437 10442 10445 10448 10451 10454 10455 10458 10461 10463 10465 10467 10470 10473 10475 10478 10481 10483 10485 10488
10260 10268 10272 10277 10286 10296 10306 10316 10324 10334 10340 10350 10357 10363 10372 10378 10385 10392 10399 10405 10411 10418 10424 10428 10430 10434 10438 10441 10443 10445 10447 10451 10454 10455 10458 10461 10463 10466 10470 10472 10476 10478 10480
10252 10257 10262 10268 10277 10287 10297 10307 10315 10325 10333 10341 10348 10355 10364 10372 10378 10385 10391 10396 10403 10409 10413 10416 10419 10422 10426 10430 10432 10433 10435 10437 10440 10444 10447 10450 10453 10455 10458 10462 10465 10468 10470
10244 10248 10253 10261 10269 10278 10288 10297 10306 10315 10324 10331 10338 10345 10353 10362 10369 10375 10382 10386 10393 10397 10400 10402 10406 10409 10411 10414 10417 10421 10423 10424 10426 10429 10434 10436 10439 10442 10445 10448 10451 10456 10458
10235 10240 10246 10254 10262 10270 10279 10288 10296 10306 10315 10323 10329 10336 10342 10351 10358 10365 10371 10375 10379 10383 10385 10387 10389 10390 10394 10397 10401 10403 10405 10407 10409 10414 10419 10423 10425 10427 10431 10435 10438 10441 10443
10227 10233 10239 10247 10255 10262 10271 10279 10287 10294 10302 10311 10317 10324 10331 10338 10345 10351 10357 10362 10365 10367 10370 10371 10370 10370 10373 10377 10382 10383 10383 10388 10391 10396 10400 10406 10409 10411 10414 10419 10422 10425 10428
10220 10225 10231 10238 10245 10252 10259 10267 10275 10282 10290 10297 10304 10310 10317 10323 10329 10335 10340 10344 10349 10352 10354 10355 10356 10357 10357 10362 10365 10366 10365 10369 10373 10376 10381 10386 10389 10392 10397 10399 10403 10405 10408
10215 10220 10224 10229 10235 10241 10247 10254 10262 10268 10275 10282 10288 10295 10301 10306 10312 10317 10323 10327 10330 10333 10336 10338 10338 10339 10340 10341 10346 10348 10347 10350 10354 10358 10362 10366 10370 10371 10374 10377 10380 10383 10384
10206 10211 10215 10219 10223 10228 10233 10239 10247 10254 10260 10265 10270 10275 10280 10285 10290 10296 10300 10305 10309 10312 10315 10317 10319 10320 10321 10322 10323 10324 10329 10330 10333 10337 10339 10342 10346 10349 10351 10353 10356 10357 10360